When you browse on this site, cookies collect data to enhance your experience and personalize the content and advertising you see.
Visit our Privacy Policy to learn more. By continuing to use the site, you agree to this use of cookies and data.
  • In Hungary
  • List of Countries
  • For 7 days
  • Water Temperature
  • Weather Map
  • News
  • Weather Widgets
  • user-avatar
    Login

    Hourly Weather Kadiri

    Today, 12 November, Tuesday

    Time Temperature Precipitation Wind Pressure Humidity
    00:00 +23°C° 0 mm 1 mps 709 mmHg 84%
    01:00 +23°C° 0 mm 1 mps 709 mmHg 87%
    02:00 +22°C° 0 mm 1 mps 709 mmHg 89%
    03:00 +22°C° 0 mm 1 mps 709 mmHg 90%
    04:00 +22°C° 0 mm 1 mps 709 mmHg 90%
    05:00 +22°C° 0 mm 1 mps 709 mmHg 91%
    06:00 +23°C° 0 mm 1 mps 710 mmHg 86%
    07:00 +24°C° 0 mm 2 mps 710 mmHg 80%
    08:00 +25°C° 0 mm 2 mps 711 mmHg 74%
    09:00 +27°C° 0 mm 3 mps 711 mmHg 69%
    10:00 +28°C° 0 mm 3 mps 711 mmHg 63%
    11:00 +29°C° 0 mm 4 mps 711 mmHg 57%
    12:00 +29°C° 0 mm 4 mps 710 mmHg 56%
    13:00 +30°C° 0 mm 4 mps 709 mmHg 54%
    14:00 +30°C° 0 mm 3 mps 709 mmHg 52%
    15:00 +29°C° 0 mm 3 mps 709 mmHg 59%
    16:00 +28°C° 0 mm 3 mps 709 mmHg 66%
    17:00 +26°C° 0 mm 2 mps 709 mmHg 73%
    18:00 +26°C° 0.1 mm 2 mps 709 mmHg 77%
    19:00 +25°C° 0.1 mm 2 mps 710 mmHg 81%
    20:00 +24°C° 0.1 mm 2 mps 710 mmHg 85%
    21:00 +23°C° 0 mm 2 mps 710 mmHg 86%
    22:00 +23°C° 0 mm 2 mps 710 mmHg 86%
    23:00 +23°C° 0 mm 2 mps 710 mmHg 87%

    Tomorrow, 13 November, Wednesday

    Time Temperature Precipitation Wind Pressure Humidity
    00:00 +21°C° 0 mm 2 mps 710 mmHg 89%
    01:00 +22°C° 0 mm 1 mps 709 mmHg 90%
    02:00 +22°C° 0 mm 1 mps 709 mmHg 92%
    03:00 +21°C° 0 mm 1 mps 709 mmHg 92%
    04:00 +21°C° 0 mm 1 mps 709 mmHg 92%
    05:00 +21°C° 0 mm 1 mps 709 mmHg 93%
    06:00 +22°C° 0 mm 1 mps 710 mmHg 88%
    07:00 +23°C° 0 mm 1 mps 711 mmHg 83%
    08:00 +24°C° 0 mm 2 mps 711 mmHg 77%
    09:00 +26°C° 0 mm 2 mps 711 mmHg 74%
    10:00 +27°C° 0 mm 3 mps 711 mmHg 71%
    11:00 +28°C° 0 mm 3 mps 711 mmHg 67%
    12:00 +28°C° 0.2 mm 3 mps 710 mmHg 68%
    13:00 +28°C° 0.2 mm 4 mps 710 mmHg 68%
    14:00 +28°C° 0.2 mm 4 mps 709 mmHg 68%
    15:00 +27°C° 0.3 mm 4 mps 709 mmHg 72%
    16:00 +26°C° 0.3 mm 4 mps 709 mmHg 77%
    17:00 +25°C° 0.3 mm 4 mps 709 mmHg 82%
    18:00 +25°C° 0.1 mm 3 mps 709 mmHg 85%
    19:00 +24°C° 0.1 mm 3 mps 710 mmHg 88%
    20:00 +22°C° 0.1 mm 3 mps 711 mmHg 92%
    21:00 +21°C° 0 mm 2 mps 710 mmHg 93%
    22:00 +21°C° 0 mm 2 mps 710 mmHg 94%
    23:00 +21°C° 0 mm 2 mps 710 mmHg 95%

    Day after tomorrow, 14 November, Thursday

    Time Temperature Precipitation Wind Pressure Humidity
    00:00 +21°C° 0 mm 1 mps 710 mmHg 96%
    01:00 +21°C° 0 mm 1 mps 709 mmHg 96%
    02:00 +21°C° 0 mm 1 mps 709 mmHg 96%
    03:00 +20°C° 0 mm 1 mps 709 mmHg 96%
    04:00 +18°C° 0 mm 0 mps 709 mmHg 97%
    05:00 +18°C° 0 mm 0 mps 709 mmHg 97%
    06:00 +21°C° 0 mm 1 mps 710 mmHg 95%
    07:00 +22°C° 0 mm 1 mps 710 mmHg 93%
    08:00 +23°C° 0 mm 1 mps 711 mmHg 91%
    09:00 +23°C° 0.1 mm 2 mps 711 mmHg 88%
    10:00 +24°C° 0.1 mm 2 mps 711 mmHg 85%
    11:00 +25°C° 0.1 mm 2 mps 710 mmHg 83%
    12:00 +26°C° 0.2 mm 3 mps 710 mmHg 80%
    13:00 +27°C° 0.2 mm 3 mps 709 mmHg 77%
    14:00 +27°C° 0.2 mm 4 mps 708 mmHg 74%
    15:00 +27°C° 1 mm 4 mps 708 mmHg 77%
    16:00 +26°C° 1 mm 3 mps 709 mmHg 81%
    17:00 +25°C° 1 mm 3 mps 709 mmHg 84%
    18:00 +25°C° 0.6 mm 3 mps 709 mmHg 88%
    19:00 +24°C° 0.6 mm 2 mps 710 mmHg 91%
    20:00 +23°C° 0.6 mm 2 mps 710 mmHg 95%
    21:00 +23°C° 0.1 mm 2 mps 710 mmHg 95%
    22:00 +23°C° 0.1 mm 2 mps 710 mmHg 96%
    23:00 +23°C° 0.1 mm 1 mps 710 mmHg 96%

    15 November, Friday

    Time Temperature Precipitation Wind Pressure Humidity
    00:00 +23°C° 0.1 mm 1 mps 709 mmHg 97%
    01:00 +23°C° 0.1 mm 1 mps 709 mmHg 97%
    02:00 +22°C° 0.1 mm 1 mps 708 mmHg 97%
    03:00 +22°C° 0.1 mm 1 mps 709 mmHg 97%
    04:00 +22°C° 0.1 mm 1 mps 709 mmHg 97%
    05:00 +22°C° 0.1 mm 1 mps 709 mmHg 97%
    06:00 +23°C° 0 mm 1 mps 709 mmHg 93%
    07:00 +24°C° 0 mm 2 mps 710 mmHg 89%
    08:00 +25°C° 0 mm 2 mps 711 mmHg 85%
    09:00 +26°C° 0.2 mm 3 mps 711 mmHg 82%
    10:00 +26°C° 0.2 mm 3 mps 710 mmHg 79%
    11:00 +27°C° 0.2 mm 3 mps 710 mmHg 75%
    12:00 +28°C° 1 mm 3 mps 709 mmHg 74%
    13:00 +28°C° 1 mm 3 mps 709 mmHg 73%
    14:00 +28°C° 1 mm 3 mps 708 mmHg 72%
    15:00 +27°C° 1.1 mm 3 mps 708 mmHg 76%
    16:00 +26°C° 1.1 mm 3 mps 708 mmHg 81%
    17:00 +25°C° 1.1 mm 3 mps 708 mmHg 86%
    18:00 +25°C° 0.1 mm 3 mps 709 mmHg 88%
    19:00 +24°C° 0.1 mm 2 mps 709 mmHg 90%
    20:00 +24°C° 0.1 mm 2 mps 710 mmHg 92%
    21:00 +23°C° 0.3 mm 2 mps 710 mmHg 92%
    22:00 +23°C° 0.3 mm 2 mps 710 mmHg 92%
    23:00 +23°C° 0.3 mm 2 mps 710 mmHg 92%

    16 November, Saturday

    Time Temperature Precipitation Wind Pressure Humidity
    00:00 +23°C° 0.2 mm 1 mps 709 mmHg 92%
    01:00 +23°C° 0.2 mm 1 mps 709 mmHg 92%
    02:00 +22°C° 0.2 mm 1 mps 709 mmHg 92%
    03:00 +22°C° 0 mm 1 mps 709 mmHg 92%
    04:00 +22°C° 0 mm 1 mps 709 mmHg 92%
    05:00 +21°C° 0 mm 1 mps 709 mmHg 92%
    06:00 +22°C° 0 mm 1 mps 709 mmHg 87%
    07:00 +23°C° 0 mm 1 mps 710 mmHg 81%
    08:00 +24°C° 0 mm 1 mps 711 mmHg 76%
    09:00 +26°C° 0 mm 2 mps 711 mmHg 70%
    10:00 +27°C° 0 mm 2 mps 710 mmHg 65%
    11:00 +28°C° 0 mm 3 mps 710 mmHg 60%
    12:00 +29°C° 0 mm 3 mps 710 mmHg 57%
    13:00 +29°C° 0 mm 3 mps 709 mmHg 55%
    14:00 +30°C° 0 mm 3 mps 709 mmHg 53%
    15:00 +29°C° 0 mm 3 mps 708 mmHg 58%
    16:00 +28°C° 0 mm 2 mps 708 mmHg 64%
    17:00 +27°C° 0 mm 2 mps 708 mmHg 69%
    18:00 +26°C° 0 mm 2 mps 709 mmHg 72%
    19:00 +25°C° 0 mm 2 mps 710 mmHg 76%
    20:00 +24°C° 0 mm 1 mps 710 mmHg 80%
    21:00 +23°C° 0 mm 1 mps 710 mmHg 82%
    22:00 +23°C° 0 mm 1 mps 710 mmHg 84%
    23:00 +23°C° 0 mm 1 mps 710 mmHg 86%

    17 November, Sunday

    Time Temperature Precipitation Wind Pressure Humidity
    00:00 +22°C° 0 mm 1 mps 709 mmHg 88%
    01:00 +22°C° 0 mm 1 mps 709 mmHg 89%
    02:00 +22°C° 0 mm 1 mps 709 mmHg 90%
    03:00 +19°C° 0 mm 0 mps 709 mmHg 90%
    04:00 +19°C° 0 mm 0 mps 709 mmHg 90%
    05:00 +19°C° 0 mm 0 mps 709 mmHg 90%
    06:00 +20°C° 0 mm 0 mps 710 mmHg 85%
    07:00 +24°C° 0 mm 1 mps 710 mmHg 80%
    08:00 +25°C° 0 mm 1 mps 711 mmHg 75%
    09:00 +26°C° 0 mm 2 mps 711 mmHg 69%
    10:00 +27°C° 0 mm 2 mps 711 mmHg 63%
    11:00 +29°C° 0 mm 3 mps 711 mmHg 56%
    12:00 +29°C° 0 mm 3 mps 710 mmHg 54%
    13:00 +29°C° 0 mm 3 mps 709 mmHg 52%
    14:00 +30°C° 0 mm 3 mps 709 mmHg 50%
    15:00 +29°C° 0 mm 3 mps 709 mmHg 55%
    16:00 +28°C° 0 mm 2 mps 709 mmHg 60%
    17:00 +27°C° 0 mm 2 mps 709 mmHg 65%
    18:00 +26°C° 0 mm 2 mps 709 mmHg 69%
    19:00 +25°C° 0 mm 2 mps 710 mmHg 73%
    20:00 +24°C° 0 mm 1 mps 710 mmHg 77%
    21:00 +24°C° 0 mm 1 mps 710 mmHg 78%
    22:00 +23°C° 0 mm 1 mps 710 mmHg 80%
    23:00 +21°C° 0 mm 0 mps 710 mmHg 82%
    Show more